Location: Cahas Mountain Overlook
(37.0833°N, 80.1000°W)
Time: 18:33:03
(UTC-05:00)

ARIANE 6 FM1 Upper Stage - Pass Details

Date: 26 January 2026
Orbit: 522 x 609 km, 62.0° (Epoch: 15 February)

Event Time Altitude Azimuth Distance (km) Brightness Sun altitude
Rises 18:56:13 0° 258° (WSW) 2,706 8.1 -15.5°
Reaches altitude 10° 18:59:19 10° 283° (WNW) 1,799 6.3 -16.1°
Maximum altitude 19:01:35 15° 317° (NW) 1,521 5.3 -16.6°
Drops below altitude 10° 19:03:51 10° 352° (N) 1,782 5.2 -17.0°
Enters shadow 19:05:32 - 9° (N) 2,221 5.5 -17.4°
